Starlink 31447

operational
NORAD ID: 59302 Int'l Des: 2024-056 Owner: SPXS Country: US Constellation: starlink
LEOCIRCULAR

Über Starlink 31447

Beschreibung wird geladen...

Live-Position

3D-Globus wird geladen...

Nächste Überflüge

Höhenverlauf

Altitude vs Time

uPlot chart will show altitude changes over time

Zweizeiliger Elementsatz

1 59302U 24056G 25305.85546635 .00009539 00000-0 35644-3 0 9994
2 59302 43.0061 232.6662 0002811 267.7171 92.3359 15.27511555 91609
Epoch: 1. Nov. 2025 • Age: 36 hours

Aktueller Status

Höhe 485.9 km
Geschwindigkeit 7.63 km/s
Subsatellitenpunkt 34.09°N, 94.46°E
Startdatum 24. März 2024
Alter 1.6 years
Typ internet

Technische Details

Klassifizierung Payload
Masse 730.00 kg
Trockenmasse 700.00 kg
Gesamtmasse 730.00 kg
Länge 0.30 m
Durchmesser 4.10 m
Spannweite 29.00 m
Form Box + pan
Hersteller SPXS
Bus-Typ Starlink V2M
Phasenstatus In Orbit
Besitzer/Staat SPXS/US

Große Konstellationen

Loading constellations...